Location: Timmins
(48.4758°N, 81.3305°W)
Time: 06:09:07
(UTC-05:00)

ISS - Visible Passes

Search period start: 23 November 2017 00:00
Search period end: 03 December 2017 00:00
Orbit: 402 x 407 km, 51.6° (Epoch: 23 November)

Date Brightness Start Highest point End Pass type
(mag) Time Alt. Az. Time Alt. Az. Time Alt. Az.
26 Nov -1.1 18:35:50 10° SSE 18:35:51 10° SSE 18:35:51 10° SSE visible
27 Nov -1.0 19:18:03 10° SW 19:18:37 14° SW 19:18:37 14° SW visible
28 Nov -2.3 18:26:11 10° SSW 18:28:36 25° SSE 18:28:36 25° SSE visible
29 Nov -1.7 17:34:44 10° S 17:36:48 16° SE 17:38:30 11° ESE visible
29 Nov -1.7 19:09:34 10° WSW 19:11:10 26° WSW 19:11:10 26° WSW visible
30 Nov -3.4 18:17:21 10° SW 18:20:31 48° SSE 18:21:00 44° ESE visible
01 Dec -2.6 17:25:20 10° SSW 17:28:15 30° SE 17:30:46 12° E visible
01 Dec -2.3 19:01:18 10° WSW 19:03:25 36° W 19:03:25 36° W visible
02 Dec -3.9 18:08:52 10° WSW 18:12:09 86° SSE 18:13:09 42° ENE visible
02 Dec -0.3 19:45:37 10° WNW 19:45:47 11° WNW 19:45:47 11° WNW visible
